Miscellaneous Local Product
Issued by NWS North Platte, NE

Home | Current Version | Previous Version | Graphics & Text | Print | Product List | Glossary On
Versions: 1 2 3 4 5 6 7 8 9 10 11 12 13 14 15 16 17 18 19 20 21 22 23 24 25 26 27 28 29 30 31 32 33 34 35 36 37 38 39 40 41 42 43 44 45 46 47 48 49 50
000
AXUS43 KLBF 230610
MISLBF


WESTERN AND NORTH CENTRAL NEBRASKA HOURLY WEATHER ROUNDUP
NATIONAL WEATHER SERVICE NORTH PLATTE NE
1200 AM CST SUN NOV 23 2014

***STATIONS NOT REPORTING VARIABLES SUCH AS SKY/WEATHER OR
PRESSURE ARE PROVIDED BY THE NEBRASKA DEPARTMENT OF
ROADS...RAWS...AND APRS NETWORKS...AND ARE NOT UNDER
NATIONAL WEATHER SERVICE QUALITY CONTROL***

...OBSERVATIONS IN AND NEAR THE EASTERN PANHANDLE OF NEBRASKA...

CITY           SKY/WX    TMP DP  RH WIND       PRES   REMARKS
PINE RIDGE     PTCLDY    40  32  73 W8        29.48R WCI  34
CHADRON        PTCLDY    41  32  70 W16G25    29.52R
ALLIANCE       CLOUDY    35  28  75 W7        29.50S WCI  29
SIDNEY         MOCLDY    43  25  49 NW10      29.53F
WHITECLAY        N/A     43  30  59 W14         N/A
LISCO            N/A     38  27  62 W5          N/A  WCI  35
BIG SPRINGS      N/A     33  25  72 CALM        N/A
LEWELLEN         N/A     16   7  67 CALM        N/A
$$

...OBSERVATIONS IN NORTH CENTRAL NEBRASKA...

CITY           SKY/WX    TMP DP  RH WIND       PRES   REMARKS
VALENTINE      CLOUDY    40  37  89 SW10      29.43F WCI  33
THEDFORD       CLOUDY    46  33  60 CALM      29.48S
AINSWORTH      CLOUDY    43  37  79 S8        29.44F
O`NEILL        CLOUDY    50  36  58 S5        29.47S
ORD            CLOUDY    42  33  70 CALM      29.49F
BROKEN BOW     CLOUDY    44  30  57 CALM      29.49F
BROWNLEE         N/A     48  41  76 S7          N/A
BREWSTER         N/A     48  32  53 S6          N/A
COMSTOCK         N/A     51  33  50 S9          N/A
$$

...OBSERVATIONS IN SOUTHWEST NEBRASKA AND FAR NORTHEAST COLORADO...

CITY           SKY/WX    TMP DP  RH WIND       PRES   REMARKS
WRAY           FAIR      43  17  34 NW9       29.52R
HOLYOKE        FAIR      36  19  51 SW3       29.52S
IMPERIAL       CLOUDY    42  18  37 CALM      29.51R
OGALLALA       MOCLDY    35  23  62 CALM      29.51R
NORTH PLATTE   CLOUDY    38  26  62 E5        29.50S WCI  34
MCCOOK         CLOUDY    45  30  55 SE7       29.50F
LEXINGTON      CLOUDY    49  34  57 S8        29.51F
PAXTON           N/A     39  26  58 CALM        N/A
GOTHENBURG       N/A     43  24  47 CALM        N/A
CALLAWAY         N/A     41  32  69 SE6         N/A
$$

...SOME WEATHER OBSERVATIONS FROM AROUND THE REGION...

CITY           SKY/WX    TMP DP  RH WIND       PRES   REMARKS
DENVER         MOCLDY    47  25  42 NW9       29.56R
LARAMIE        CLOUDY    33  23  66 W17       29.66R WCI  22
CHEYENNE       MOCLDY    40  26  57 NW17G28   29.58S WCI  31
SCOTTSBLUFF    CLOUDY    44  30  57 NW13      29.51S
RAPID CITY     CLOUDY    38  33  82 N18       29.50R WCI  28
PIERRE         CLOUDY    36  31  82 W6        29.41R WCI  31
WINNER         FAIR      49  36  61 SW8       29.41F
SIOUX FALLS    CLOUDY    43  39  86 SW8       29.47R
OMAHA          DRIZZLE   54  52  93 S16       29.56F
KANSAS CITY    CLOUDY    55  51  86 S15G28    29.67F
WICHITA        CLOUDY    55  52  89 S17       29.61F
HAYS           CLOUDY    55  46  71 S22       29.51F
LIBERAL        CLEAR     46  41  81 S13       29.54F
GOODLAND       CLOUDY    38  23  55 SW3       29.49F
$$



USA.gov is the U.S. government's official web portal to all federal, state and local government web resources and services.